[[{"header":{"parameterUnit":"m.s-1","parameterCategory":1,"la1":30.2991,"la2":30.254,"lo1":-89.0895,"lo2":-89.0444,"dy":0.0017,"dx":0.0017,"nx":28,"ny":28,"refTime":"2025-06-18T09:00:00:Z","depth":0,"parameterNumber":2,"parameterNumberName":"U-component_of_WINDS"},"data":[0,0,0,0,0,0,0,0,0,0,0,0,0,0,0,0,0,0,0,0,0,0,0,0,0,0,0,0,0,0,0,0,0,0,0,0,0,0,0,0,0,0,0,0,0,0,0,0,0,0,0,0,0,0,0,0,0,0,2.8724,2.8725,0,2.8833,2.8834,2.8835,2.8814,2.8812,2.881,2.8808,2.892,2.8925,2.8929,0,0,0,0,0,0,0,0,0,0,0,0,0,2.8496,2.8501,2.8724,2.8725,2.8727,2.8833,2.8834,2.8836,2.8815,2.8812,2.881,2.8807,2.8918,2.8924,2.893,0,0,0,0,0,0,0,0,0,0,0,0,0,2.8599,2.8502,2.8724,2.8729,2.8731,2.8832,2.8834,2.8836,2.8815,2.8812,2.8809,2.8806,2.8916,2.8923,2.8931,2.9034,0,0,2.8953,2.8956,0,0,0,0,0,0,0,0,2.8593,2.8608,2.8727,2.8729,2.8731,2.8807,2.8795,2.8902,2.8816,2.8783,2.8808,2.8805,2.8885,2.8894,2.8921,2.9039,2.9044,2.8953,2.8958,2.8961,2.8963,0,0,0,0,0,0,0,2.8586,2.8603,2.8767,2.8729,2.8731,2.8725,2.8737,2.8815,2.8849,2.8786,2.8784,2.8797,2.8885,2.8914,2.8924,2.9046,2.8953,2.8959,2.8964,2.8967,2.925,2.9253,0,0,0,0,0,0,2.8578,2.8597,2.8764,2.877,2.8653,2.8732,2.8744,2.8785,2.8848,2.8855,2.88,2.8796,2.8903,2.8915,2.8928,2.9049,2.8961,2.8967,2.8971,2.9246,2.925,2.9254,0,0,0,0,0,0,2.8573,2.8593,2.8759,2.8683,2.8704,2.8739,2.8785,2.8789,2.8818,2.8859,2.8865,2.8823,2.8902,2.8917,2.9007,2.9053,2.8971,2.8977,2.9243,2.9248,2.9252,2.9296,0,0,0,0,0,0,2.8566,2.8591,2.8631,2.8684,2.8708,2.8837,2.8788,2.8793,2.8831,2.8827,2.8883,2.8889,2.8901,2.8996,2.9014,2.9061,2.8983,2.9239,2.9245,2.925,2.929,2.9301,2.9311,0,0,0,0,0,2.8558,2.864,2.8633,2.8654,2.8759,2.884,2.8854,2.8865,2.8835,2.8874,2.89,2.8887,2.9046,2.9005,2.9025,2.9076,2.9236,2.9243,2.925,2.9286,2.9299,2.9311,0,0,0,0,0,0,2.8593,2.8647,2.864,2.8742,2.8787,2.8836,2.8887,2.888,2.8934,2.8928,2.894,2.8953,2.9043,2.9069,2.9023,2.9177,2.9136,2.9148,2.9156,2.917,2.918,2.9171,2.8989,0,0,0,0,0,2.8612,2.8673,2.8718,2.8803,2.8826,2.8853,2.8888,2.8893,2.894,2.8958,2.8991,2.9036,2.9095,2.9134,2.9192,2.9295,2.9305,2.9339,2.9349,2.9358,2.9367,2.9419,2.9434,2.9277,2.9277,2.9277,0,0,2.8653,2.869,2.8728,2.8811,2.8846,2.8907,2.8869,2.8937,2.8982,2.8969,2.9054,2.9079,2.913,2.9226,2.9269,2.925,2.9412,2.9367,2.9373,2.9378,2.9428,2.9442,2.9456,2.9282,2.9281,2.9281,0,0,2.8757,2.8794,2.8867,2.8902,2.8954,2.8971,2.8989,2.904,2.9055,2.9141,2.9131,2.9185,2.9289,2.9324,2.9356,2.9472,2.9461,2.949,2.9544,2.9595,2.9607,2.9618,2.9655,2.9669,2.95,2.95,2.95,0,2.8801,2.8894,2.8905,2.8973,2.9008,2.8998,2.9071,2.9105,2.9174,2.9198,2.9176,2.9303,2.9337,2.9438,2.9466,2.9494,2.9512,2.9483,2.9604,2.9615,2.9626,2.9662,2.9676,2.9503,2.9503,2.9502,2.9502,0,2.8943,2.9008,2.9061,2.9126,2.9168,2.9238,2.9258,2.9299,2.93,2.9319,2.9404,2.9445,2.9508,2.9533,2.9536,2.9635,2.962,2.9601,2.956,2.9643,2.9677,2.9691,2.9507,2.9506,2.9505,2.9504,0,0,2.9073,2.9141,2.916,2.9188,2.9245,2.9294,2.9363,2.9425,2.9458,2.9506,2.9562,2.9648,2.963,2.9666,2.9672,2.9717,2.9801,2.9692,2.9693,2.9708,2.9908,2.992,2.9936,2.9795,2.9798,2.98,2.9903,0,2.918,2.9301,2.9312,2.942,2.9477,2.9468,2.9527,2.9568,2.9587,2.9638,2.966,2.9719,2.9692,2.9713,2.9758,2.9782,2.9841,2.9775,2.9845,2.9848,2.983,2.9955,2.9968,3.0063,2.9917,2.9919,2.9921,0,2.9321,2.9371,2.9485,2.953,2.9554,2.9608,2.9663,2.9713,2.9758,2.9768,2.9807,2.9807,2.9875,2.9833,2.9927,2.9881,2.9911,2.9927,2.9931,2.9936,2.9887,2.9959,3.0094,3.0107,2.9942,2.9941,2.9939,0,2.9399,2.9495,2.9575,2.9599,2.9655,2.9692,2.9717,2.9759,2.9794,2.9843,2.9865,2.9922,2.9952,2.9995,3.0009,2.9977,3.0101,3.0061,3.0109,3.0109,3.0134,3.0132,3.0272,3.0159,3.0158,3.0158,3.0158,0,2.9516,2.9585,2.961,2.9658,2.9734,2.9746,2.982,2.9843,2.988,2.9932,2.9928,2.9977,2.9994,3.0044,3.0056,3.013,3.0145,3.0153,3.0155,3.0152,3.015,3.017,3.0162,3.0162,3.0161,3.016,3.016,0,2.9615,2.9635,2.972,2.9765,2.9778,2.9832,2.987,2.9916,2.9934,2.9999,3.0015,3.0043,3.0102,3.0121,3.0194,3.0201,3.0286,3.0284,3.027,3.027,3.0316,3.031,3.0471,3.0491,3.0368,3.0369,3.037,0,2.9687,2.9739,2.979,2.9823,2.9849,2.9905,2.994,2.9953,2.9989,3.0043,3.0081,3.014,3.0187,3.0282,3.0309,3.0363,3.036,3.0413,3.0368,3.0362,3.0357,3.0352,3.0356,3.042,3.0421,3.0422,3.0423,0,2.9811,2.9817,2.9868,2.9922,2.9964,3.0007,3.0048,3.0076,3.0095,3.0136,3.0196,3.0233,3.0305,3.0362,3.0417,3.0442,3.0435,3.0437,3.0451,3.0447,3.0435,3.0438,3.029,3.0433,3.0432,3.0431,3.0431,3.043,2.9896,2.9941,2.9982,3.0038,3.007,3.0108,3.0152,3.0175,3.0225,3.0284,3.029,3.0353,3.0394,3.0467,3.0495,3.0544,3.0529,3.0549,3.0554,3.0558,3.056,3.043,3.0555,3.0554,3.0554,3.0554,3.0554,0,3.0016,3.0042,3.0093,3.015,3.0194,3.0184,3.0229,3.0265,3.0321,3.036,3.0406,3.0473,3.0528,3.0558,3.0613,3.0646,3.0644,3.066,3.0656,3.0661,3.0572,3.0553,3.066,3.066,3.066,3.066,3.066,3.066,3.0084,3.0157,3.0169,3.0257,3.0283,3.0345,3.037,3.0405,3.0435,3.051,3.0555,3.0575,3.0609,3.0666,3.0715,3.0722,3.0741,3.0758,3.0763,3.0679,3.0668,3.0657,3.0639,3.0763,3.0763,3.0847,3.0848,3.0848]},{"header":{"parameterUnit":"m.s-1","parameterCategory":1,"la1":30.2991,"la2":30.254,"lo1":-89.0895,"lo2":-89.0444,"dy":0.0017,"dx":0.0017,"nx":28,"ny":28,"refTime":"2025-06-18T09:00:00:Z","depth":0,"parameterNumber":3,"parameterNumberName":"V-component_of_WINDS"},"data":[0,0,0,0,0,0,0,0,0,0,0,0,0,0,0,0,0,0,0,0,0,0,0,0,0,0,0,0,0,0,0,0,0,0,0,0,0,0,0,0,0,0,0,0,0,0,0,0,0,0,0,0,0,0,0,0,0,0,2.2159,2.216,0,2.2262,2.2263,2.2265,2.226,2.2258,2.2257,2.2255,2.2362,2.2366,2.2371,0,0,0,0,0,0,0,0,0,0,0,0,0,2.1958,2.1962,2.2159,2.216,2.2162,2.2262,2.2264,2.2265,2.226,2.2258,2.2256,2.2255,2.2361,2.2366,2.2371,0,0,0,0,0,0,0,0,0,0,0,0,0,2.2052,2.1963,2.2159,2.2171,2.2173,2.2262,2.2264,2.2265,2.226,2.2258,2.2256,2.2254,2.2359,2.2365,2.2372,2.2455,0,0,2.2391,2.2394,0,0,0,0,0,0,0,0,2.2046,2.2059,2.2168,2.217,2.2173,2.2246,2.2232,2.2329,2.2261,2.2227,2.2255,2.2253,2.2325,2.2334,2.2359,2.246,2.2465,2.2392,2.2395,2.2398,2.24,0,0,0,0,0,0,0,2.204,2.2055,2.22,2.217,2.2173,2.2172,2.2183,2.225,2.2288,2.223,2.223,2.2242,2.2326,2.2353,2.2361,2.2466,2.2391,2.2397,2.2401,2.2403,2.2639,2.2642,0,0,0,0,0,0,2.203,2.2049,2.2197,2.2203,2.2103,2.2177,2.2189,2.2225,2.2287,2.2294,2.2244,2.2242,2.2343,2.2354,2.2365,2.2466,2.2398,2.2404,2.2408,2.2637,2.264,2.2643,0,0,0,0,0,0,2.2026,2.2044,2.2192,2.2126,2.2145,2.2183,2.2223,2.2228,2.2254,2.2297,2.2304,2.2264,2.2342,2.2356,2.2432,2.2469,2.2407,2.2413,2.2634,2.2638,2.2641,2.2668,0,0,0,0,0,0,2.202,2.2042,2.2074,2.2127,2.2148,2.2258,2.2225,2.2232,2.2265,2.2263,2.2318,2.2325,2.2341,2.2423,2.2438,2.2477,2.2418,2.2631,2.2636,2.264,2.2664,2.2672,2.2679,0,0,0,0,0,2.2013,2.2078,2.2076,2.2094,2.2189,2.226,2.2273,2.229,2.2268,2.23,2.2328,2.2323,2.2463,2.2431,2.2448,2.2489,2.2629,2.2634,2.264,2.2661,2.2671,2.2679,0,0,0,0,0,0,2.203,2.2085,2.2083,2.2167,2.2209,2.2259,2.2301,2.23,2.2349,2.2345,2.2364,2.2377,2.2453,2.2479,2.2442,2.2572,2.2543,2.2552,2.2553,2.2562,2.257,2.2562,2.2423,0,0,0,0,0,2.2043,2.2096,2.2142,2.2211,2.2232,2.2263,2.2295,2.2304,2.2348,2.2366,2.2399,2.2442,2.2495,2.253,2.2582,2.2668,2.2679,2.2704,2.2712,2.2718,2.2726,2.2772,2.2783,2.2661,2.2661,2.2661,0,0,2.2072,2.2108,2.2141,2.2216,2.2249,2.2303,2.2278,2.2337,2.2377,2.2375,2.2448,2.2474,2.2524,2.2604,2.2642,2.2628,2.2762,2.2725,2.2729,2.2734,2.2779,2.279,2.28,2.2665,2.2664,2.2663,0,0,2.2151,2.2184,2.2245,2.2279,2.2329,2.2349,2.2363,2.2414,2.2431,2.2505,2.2504,2.2552,2.2644,2.2679,2.2709,2.2799,2.2796,2.2816,2.2855,2.29,2.291,2.2918,2.295,2.2961,2.2823,2.2823,2.2823,0,2.218,2.2261,2.2277,2.2335,2.2368,2.2368,2.2429,2.2461,2.2527,2.2549,2.2533,2.2647,2.2681,2.2769,2.2791,2.2815,2.2832,2.281,2.2907,2.2916,2.2924,2.2954,2.2966,2.2825,2.2825,2.2825,2.2825,0,2.2293,2.235,2.2393,2.2454,2.2492,2.2552,2.2577,2.2613,2.2619,2.264,2.2715,2.2755,2.2814,2.2836,2.2842,2.2925,2.2915,2.2903,2.2873,2.2937,2.2966,2.2978,2.2828,2.2827,2.2827,2.2826,0,0,2.2387,2.2455,2.2471,2.2498,2.2553,2.2597,2.2657,2.2714,2.2744,2.2789,2.2839,2.2916,2.2904,2.2938,2.2949,2.2988,2.3056,2.2971,2.2972,2.2985,2.3148,2.3157,2.317,2.3054,2.3056,2.3058,2.3144,0,2.2471,2.2576,2.2591,2.2684,2.2735,2.2735,2.2787,2.2826,2.2848,2.2895,2.2918,2.2972,2.2954,2.2974,2.3013,2.3039,2.3089,2.3033,2.3101,2.3103,2.3088,2.3185,2.3194,2.3273,2.3155,2.3157,2.3159,0,2.2583,2.2629,2.2727,2.2774,2.2796,2.2842,2.2895,2.294,2.2984,2.2997,2.3034,2.3039,2.3101,2.3069,2.3153,2.3115,2.3143,2.316,2.3164,2.3171,2.3134,2.3194,2.3299,2.331,2.3177,2.3175,2.3174,0,2.264,2.2727,2.2796,2.282,2.2876,2.2909,2.2934,2.2976,2.3009,2.3055,2.3077,2.313,2.3159,2.32,2.3219,2.3194,2.3302,2.3272,2.3314,2.3313,2.3337,2.3335,2.3447,2.3356,2.3356,2.3355,2.3355,0,2.2732,2.2792,2.2822,2.2865,2.2931,2.2948,2.3014,2.3038,2.3075,2.3122,2.3126,2.317,2.3193,2.324,2.3256,2.3323,2.3336,2.3348,2.3351,2.3348,2.3346,2.3366,2.3361,2.3358,2.3358,2.3357,2.3357,0,2.2807,2.283,2.2906,2.2952,2.2965,2.3012,2.3052,2.3093,2.3114,2.3173,2.3188,2.3221,2.3277,2.33,2.3369,2.338,2.3456,2.3456,2.3441,2.3442,2.3482,2.3478,2.3612,2.363,2.3526,2.3527,2.3528,0,2.2864,2.291,2.2961,2.2992,2.3018,2.3069,2.3102,2.312,2.3155,2.3208,2.3243,2.3298,2.3344,2.3434,2.3463,2.3516,2.3516,2.3559,2.3524,2.3519,2.3516,2.3513,2.3517,2.3566,2.3567,2.3568,2.3568,0,2.2962,2.2971,2.3019,2.307,2.3109,2.3151,2.3191,2.3217,2.3242,2.328,2.3337,2.3372,2.3442,2.3497,2.3551,2.3577,2.3577,2.3579,2.3591,2.3588,2.3577,2.3583,2.3458,2.3576,2.3575,2.3575,2.3574,2.3574,2.303,2.307,2.3111,2.3164,2.3196,2.3234,2.3274,2.3299,2.3347,2.3404,2.3413,2.3473,2.3515,2.3588,2.3616,2.3663,2.3652,2.3671,2.3675,2.3679,2.3681,2.357,2.3673,2.3673,2.3673,2.3673,2.3673,0,2.3127,2.3154,2.3202,2.3258,2.3299,2.3294,2.3339,2.3374,2.3427,2.3466,2.351,2.3575,2.3628,2.3662,2.3715,2.3747,2.3748,2.376,2.3758,2.3764,2.3688,2.3672,2.3758,2.3758,2.3758,2.3758,2.3758,2.3758,2.3183,2.325,2.3264,2.3346,2.3373,2.3431,2.3457,2.3491,2.3522,2.3594,2.3638,2.366,2.3696,2.3752,2.3801,2.3809,2.3829,2.3842,2.3849,2.3778,2.3769,2.3761,2.3745,2.3846,2.3846,2.3921,2.3921,2.3922]}]]